TimeMST,TemperatureF,Dew PointF,Humidity,Sea Level PressureIn,VisibilityMPH,Wind Direction,Wind SpeedMPH,Gust SpeedMPH,PrecipitationIn,Events,Conditions,WindDirDegrees,DateUTC
12:53 AM,59.0,3.9,11,30.01,10.0,Calm,Calm,-,N/A,,Clear,0,2012-10-18 07:53:00
1:53 AM,57.9,6.1,13,30.04,10.0,Calm,Calm,-,N/A,,Clear,0,2012-10-18 08:53:00
2:53 AM,57.2,5.0,12,30.16,10.0,Calm,Calm,-,N/A,,Clear,0,2012-10-18 09:53:00
3:53 AM,52.0,10.0,19,30.04,10.0,Calm,Calm,-,N/A,,Clear,0,2012-10-18 10:53:00
4:53 AM,50.0,12.9,23,30.06,10.0,Calm,Calm,-,N/A,,Clear,0,2012-10-18 11:53:00
5:53 AM,52.0,10.0,19,30.08,10.0,Variable,3.5,-,N/A,,Clear,0,2012-10-18 12:53:00
6:53 AM,52.0,10.0,19,30.10,10.0,Calm,Calm,-,N/A,,Clear,0,2012-10-18 13:53:00
7:53 AM,55.9,8.1,15,30.11,10.0,SSE,3.5,-,N/A,,Clear,160,2012-10-18 14:53:00
8:53 AM,59.0,8.1,13,30.12,10.0,Calm,Calm,-,N/A,,Clear,0,2012-10-18 15:53:00
9:53 AM,61.0,3.0,10,30.13,10.0,Variable,3.5,-,N/A,,Clear,0,2012-10-18 16:53:00
10:53 AM,64.0,9.0,12,30.11,10.0,NW,4.6,-,N/A,,Clear,320,2012-10-18 17:53:00
11:53 AM,66.9,10.9,11,30.09,10.0,Calm,Calm,-,N/A,,Clear,0,2012-10-18 18:53:00
12:53 PM,70.0,12.0,11,30.05,10.0,NE,4.6,-,N/A,,Clear,40,2012-10-18 19:53:00
1:53 PM,71.1,12.9,11,30.03,10.0,Variable,3.5,-,N/A,,Clear,0,2012-10-18 20:53:00
2:53 PM,72.0,9.0,9,30.02,10.0,NNE,5.8,-,N/A,,Clear,30,2012-10-18 21:53:00
3:53 PM,73.0,10.0,9,30.01,10.0,NE,5.8,-,N/A,,Clear,40,2012-10-18 22:53:00
4:53 PM,72.0,10.9,10,30.00,10.0,NE,4.6,-,N/A,,Clear,40,2012-10-18 23:53:00
5:53 PM,68.0,16.0,14,30.01,10.0,North,5.8,-,N/A,,Clear,10,2012-10-19 00:53:00
6:53 PM,64.9,21.9,19,30.02,10.0,NE,4.6,-,N/A,,Clear,50,2012-10-19 01:53:00
7:53 PM,59.0,23.0,25,30.04,10.0,Calm,Calm,-,N/A,,Clear,0,2012-10-19 02:53:00
8:53 PM,57.9,23.0,26,30.04,10.0,SSW,3.5,-,N/A,,Clear,200,2012-10-19 03:53:00
9:53 PM,55.9,24.1,29,30.04,10.0,Calm,Calm,-,N/A,,Clear,0,2012-10-19 04:53:00
10:53 PM,55.0,25.0,31,30.04,10.0,Calm,Calm,-,N/A,,Clear,0,2012-10-19 05:53:00
11:53 PM,55.0,21.9,28,30.04,10.0,Calm,Calm,-,N/A,,Clear,0,2012-10-19 06:53:00